Location: Newark
(36.1222°N, 100.9183°E)
Time: 11:45:41
(UTC+00:00)

Tiangong 2 - Visible Passes

Search period start: 21 March 2019 00:00
Search period end: 31 March 2019 00:00
Orbit: 379 x 390 km, 42.8° (Epoch: 21 March)

Date Brightness Start Highest point End Pass type
(mag) Time Alt. Az. Time Alt. Az. Time Alt. Az.
21 Mar 4.0 21:01:46 18° ENE 21:01:46 18° ENE 21:02:51 10° ENE visible
21 Mar 1.1 22:34:00 12° WNW 22:36:56 68° SSW 22:40:05 10° SE visible
22 Mar 1.4 21:37:34 65° NE 21:37:34 65° NE 21:40:36 10° ESE visible
23 Mar 1.8 22:13:32 26° WSW 22:14:36 34° SSW 22:17:31 10° SE visible
24 Mar 3.5 21:17:23 18° SE 21:17:23 18° SE 21:18:19 10° SE visible
25 Mar 3.4 21:53:42 13° S 21:53:42 13° S 21:54:24 10° S visible
28 Mar 3.4 12:25:31 10° SSE 12:25:45 10° SSE 12:25:45 10° SSE visible
29 Mar 2.1 13:00:03 10° SW 13:02:13 32° S 13:02:13 32° S visible
30 Mar 2.6 12:01:10 10° SSW 12:03:34 20° SE 12:05:58 10° E visible
30 Mar 3.2 13:37:00 10° WSW 13:38:29 25° W 13:38:29 25° W visible
